Location: Alafon
(8.4500°N, 4.2333°E)
Time: 00:26:22
(UTC+00:00)

DELTA 2 R/B (1) - Pass Details

Date: 05 July 2020
Orbit: 791 x 802 km, 39.6° (Epoch: 06 August)

Event Time Altitude Azimuth Distance (km) Brightness Sun altitude
Rises 18:42:44 0° 237° (WSW) 3,272 7.2 -9.2°
Reaches altitude 10° 18:45:14 10° 241° (WSW) 2,344 6.5 -9.8°
Maximum altitude 18:50:40 58° 320° (NW) 912 4.2 -11.0°
Drops below altitude 10° 18:56:07 10° 39° (NE) 2,348 5.9 -12.2°
Sets 18:58:39 0° 43° (NE) 3,279 6.6 -12.8°
